Location: Dal�� Lhota
(48.7500°N, 14.0167°E)
Time: 02:47:03
(UTC+00:00)

Transit 2A - Pass Details

Date: 27 July 2021
Orbit: 594 x 964 km, 66.7° (Epoch: 27 September)

Event Time Altitude Azimuth Distance (km) Brightness Sun altitude
Rises 16:46:29 0° 309° (NW) 3,275 10.3 18.1°
Reaches altitude 10° 16:50:00 10° 285° (WNW) 2,423 11.1 17.5°
Maximum altitude 16:52:46 14° 255° (WSW) 2,204 9.8 17.1°
Drops below altitude 10° 16:55:39 10° 225° (SW) 2,533 9.3 16.6°
Sets 16:59:30 0° 202° (SSW) 3,535 9.6 16.0°
